User: anonymous
Location: Caltech
(34.1382°N, 118.1253°W)
Time: 04:35:29
(UTC-07:00)
Language:

Cosmos 1939 - Orbit

View from above orbital plane
View from above orbital plane
View from above satellite
View from above satellite

Ground track
Ground track

The orbit data is extracted from the following two-line orbital elements,

1 19045U 88032A   14244.76738387  .00106449  00000-0  59227-3 0  9378
2 19045 097.2087 314.7577 0003809 164.7036 344.0644 15.79161040452566
Epoch (UTC): 01 September 2014 18:25:01
Eccentricity: 0.0003809
inclination: 97.2087°
perigee height: 330 km
apogee height: 335 km
right ascension of ascending node: 314.7577°
argument of perigee: 164.7036°
revolutions per day: 15.79161040
mean anomaly at epoch: 344.0644°
orbit number at epoch: 45256

The dashed part of the orbit path shows where the satellite is in the earth's shadow,  

DLR